[Iaude] MPEC A137: 2024 AL3 [a=1.70,e=0.49,i=10.5,H=23.4]
    mpec at marsden.cfa.harvard.edu 
    mpec at marsden.cfa.harvard.edu
       
    Thu Jan 11 20:23:37 EST 2024
    
    
  
M.P.E.C. 2024-A137                             Issued 2024 January 12, 01:21 UT
     The Minor Planet Electronic Circulars contain information on unusual
         minor planets, routine data on comets and natural satellites,
         and occasional editorial announcements.  They are published
    on behalf of Division F of the International Astronomical Union by the
          Minor Planet Center, Smithsonian Astrophysical Observatory,
                          Cambridge, MA 02138, U.S.A.
			  
             Prepared using the Tamkin Foundation Computer Network
                              MPC at CFA.HARVARD.EDU
            URL https://www.minorplanetcenter.net/    ISSN 1523-6714
                                    2024 AL3                                    
Observations:
     K24A03L*KC2024 01 10.08259 11 02 44.29 +28 39 37.0          19.6 GXEA137L51
     K24A03L KC2024 01 10.08384 11 02 43.70 +28 39 45.8          19.6 GXEA137L51
     K24A03L KC2024 01 10.08508 11 02 43.14 +28 39 53.4          19.6 GXEA137L51
     K24A03L KC2024 01 10.84025 10 58 00.94 +30 01 59.3          19.8 GXEA137L51
     K24A03L KC2024 01 10.84250 10 58 00.06 +30 02 13.8          19.8 GXEA137L51
     K24A03L KC2024 01 10.84475 10 57 59.22 +30 02 27.8          19.6 GXEA137L51
     K24A03L KC2024 01 10.93253 10 57 25.81 +30 11 39.2          20.1 VqEA137L04
     K24A03L KC2024 01 10.94821 10 57 19.71 +30 13 18.1          20.2 VqEA137L04
     K24A03L KB2024 01 10.97569 10 57 09.64 +30 15 58.3          19.5 GXEA137K35
     K24A03L KB2024 01 10.98306 10 57 06.81 +30 16 44.0          19.3 GXEA137K35
     K24A03L 1C2024 01 10.98370 10 57 06.32 +30 16 49.3          20.0 VXEA137033
     K24A03L 1C2024 01 10.98403 10 57 06.20 +30 16 51.4          20.0 VXEA137033
     K24A03L 1C2024 01 10.98437 10 57 06.05 +30 16 53.5          19.8 VXEA137033
     K24A03L 1C2024 01 10.98491 10 57 05.86 +30 16 57.1          19.7 VXEA137033
     K24A03L KB2024 01 10.99020 10 57 04.05 +30 17 29.5          19.7 GXEA137K35
     K24A03L KB2024 01 10.99714 10 57 01.33 +30 18 12.2          19.2 GXEA137K35
     K24A03L KC2024 01 11.06547710 56 34.36 +30 25 23.0          20.3 GVEA137L01
     K24A03L KC2024 01 11.06716010 56 33.70 +30 25 33.5          20.0 GVEA137L01
     K24A03L KC2024 01 11.06884110 56 33.01 +30 25 43.6          20.1 GVEA137L01
     K24A03L KB2024 01 11.06904510 56 33.268+30 25 35.27         19.8 GXEA137B72
     K24A03L KC2024 01 11.07031110 56 32.42 +30 25 52.7          20.1 GVEA137L01
     K24A03L KB2024 01 11.07659610 56 30.326+30 26 20.95         19.1 GXEA137B72
     K24A03L KB2024 01 11.08456410 56 27.194+30 27 09.18         19.6 GXEA137B72
     K24A03L 1C2024 01 11.15458 10 55 59.34 +30 34 08.4          20.3 VXEA137033
     K24A03L 1C2024 01 11.15521 10 55 59.11 +30 34 11.4          20.1 VXEA137033
     K24A03L 1C2024 01 11.15584 10 55 58.85 +30 34 15.5          20.0 VXEA137033
     K24A03L KC2024 01 11.94492110 51 27.09 +31 48 14.5                VEA137587
     K24A03L KC2024 01 11.94903110 51 25.64 +31 48 37.0          20.1 GVEA137587
Observer details:
033 Karl Schwarzschild Observatory, Tautenburg.  Observers S. Melnikov, C.
    Hogner, F. Ludwig, M. Hartmann, B. Stecklum.  Measurer B. Stecklum.
    1.34-m f/3 Schmidt + CCD.
587 Sormano.  Observers F. Manca, A. Testa.  Measurer F. Manca.  0.5-m f/6.8
    reflector + CCD.
B72 Soerth.  Observer B. Koch.  0.36-m f/7.6 reflector + CMO.
K35 Huenfelden.  Observer P. Remmel.  0.36-m f/1.9 reflector + CMO.
L01 Visnjan Observatory, Tican.  Observers K. Korlevic, L. Poropat.  Measurer
    K. Korlevic.  1.0-m f/2.9 reflector + CCD.
L04 ROASTERR-1 Observatory, Cluj-Napoca.  Observer L. Hudin.  0.3-m f/5
    reflector + CCD.
L51 MARGO, Nauchnyi.  Observer G. Borisov.  0.50-m f/1.9 reflector + CCD.
Orbital elements:
2024 AL3                                                 Earth MOID = 0.0016 AU
Epoch 2023 Sept. 13.0 TT = JDT 2460200.5                Veres                   
M 327.68140              (2000.0)            P               Q                  
n   0.44563725     Peri.  307.32497     +0.62113024     -0.76319411             
a   1.6975206      Node   103.31391     +0.76442839     +0.53988701             
e   0.4939090      Incl.   10.54774     +0.17276127     +0.35504475             
P   2.21           H   23.47          G   0.15           U   9                  
Residuals in seconds of arc
240110 L51  0.8+  0.3+    240110 033  0.2+  0.0     240111 L01  0.3-  0.1+
240110 L51  0.0   0.5+    240110 033  0.3+  0.0     240111 B72  0.2+  0.1-
240110 L51  0.3-  0.5-    240110 033  0.1+  0.0     240111 B72  0.2+  0.3-
240110 L51  0.2+  0.1+    240110 033  0.4+  0.2+    240111 033  0.1+  0.4+
240110 L51  0.2-  0.2+    240110 K35  0.2+  0.2+    240111 033  0.3+  0.4-
240110 L51  0.1-  0.3-    240110 K35  0.2-  0.4-    240111 033  0.1+  0.0
240110 L04  0.0   0.0     240111 L01  0.0   0.2-    240111 587  0.1-  0.1+
240110 L04  0.2-  0.1+    240111 L01  0.1+  0.1+    240111 587  0.1+  0.1-
240110 K35  0.1+  0.3-    240111 L01  0.2-  0.0
240110 K35  0.3+  0.7-    240111 B72  0.2-  0.2+
Ephemeris:
2024 AL3                 a,e,i = 1.70, 0.49, 11                  q = 0.8591
Date    TT    R. A. (2000) Decl.     Delta      r    Elong.  Phase     V
2023 12 13    18 55 51.2 -57 37 28   0.1232  0.8919    38.8   136.3    25.1
...
2023 12 28    14 00 58.1 -36 32 32   0.04540 0.9598    57.5   120.2    21.5
...
2024 01 05    11 44 54.5 +13 59 59   0.05793 1.0068   112.4    64.6    19.6
...
2024 01 11    10 56 57.0 +30 19 09   0.08905 1.0455   132.4    44.0    20.0
2024 01 12    10 51 04.1 +31 53 44   0.09489 1.0522   134.5    41.8    20.1
2024 01 13    10 45 35.6 +33 16 21   0.1009  1.0590   136.5    39.7    20.2
...
2024 01 19    10 19 05.2 +38 41 45   0.1387  1.1005   145.2    30.7    20.7
...
2024 01 27    09 54 25.6 +41 49 46   0.1936  1.1581   151.3    24.1    21.3
...
2024 02 11    09 26 39.5 +42 37 04   0.3114  1.2696   151.7    21.6    22.5
M. P. C. Staff               (C) Copyright 2024 MPC           M.P.E.C. 2024-A137
    
    
More information about the Iaude
mailing list